Regional Weather Roundup
Issued by NWS

Home | Current Version | Previous Version | Graphics & Text | Print | Product List | Glossary On
Versions: 1 2 3 4 5 6 7 8 9 10 11 12 13 14 15 16 17 18 19 20 21 22 23 24 25 26 27 28 29 30 31 32 33 34 35 36 37 38 39 40 41 42 43 44 45 46 47 48 49 50
000
ASUS43 KLSX 310507
RWRMO

WEATHER SUMMARY FOR MISSOURI
NATIONAL WEATHER SERVICE SPRINGFIELD MO
1200 AM CDT THU JUL 31 2014

NOTE: "FAIR" INDICATES FEW OR NO CLOUDS BELOW 12,000 FEET WITH NO
       SIGNIFICANT WEATHER AND/OR OBSTRUCTIONS TO VISIBILITY.
       CURRENT SKY AND/OR WEATHER CONDITIONS ARE NOT AVAILABLE FOR
       CHILLICOTHE AND FARMINGTON.

MOZ001>031-035>038-043-044-053-054-310600-
...NORTHERN AND WESTERN MISSOURI...

CITY           SKY/WX    TMP DP  RH WIND       PRES   REMARKS
KANSAS CTY INT PTCLDY    68  56  65 NE5       30.11R
KANSAS C DTWN  CLEAR     70  60  70 CALM      30.09S
LEE`S SUMMIT   PTCLDY    65  61  87 SW5       30.11R
ST JOSEPH      CLEAR     61  57  87 CALM      30.11S
CHILLICOTHE      N/A     63  58  83 CALM      30.11R
KIRKSVILLE     CLEAR     58  56  93 CALM      30.11R

$$
MOZ066>068-077>081-088>096-101>105-310600-
...SOUTHWEST MISSOURI...

CITY           SKY/WX    TMP DP  RH WIND       PRES   REMARKS
SPRINGFIELD    CLOUDY    67  65  93 CALM      30.10R
JOPLIN         CLOUDY    66  65  96 CALM      30.10R

$$
MOZ032>034-039>042-045>050-055>058-069>072-310600-
...CENTRAL MISSOURI...

CITY           SKY/WX    TMP DP  RH WIND       PRES   REMARKS
COLUMBIA       PTCLDY    67  60  78 NW5       30.09S
JEFFERSON CITY PTCLDY    66  59  78 NW3       30.08R
ROLLA          PTCLDY    62  59  90 CALM      30.08S
SEDALIA        PTCLDY    67  60  78 W5        30.10R
WHITEMAN AFB   PTCLDY    65  53  63 W2        30.09R
OSAGE BEACH    PTCLDY    63  59  88 CALM      30.09R

$$
MOZ051-052-059>065-310600-
...EAST CENTRAL MISSOURI...

CITY           SKY/WX    TMP DP  RH WIND       PRES   REMARKS
ST LOUIS INTL  MOCLDY    75  58  55 CALM      30.08R
SPIRIT OF STL  MOCLDY    67  61  81 CALM      30.06S
ST CHARLES     PTCLDY    64  61  90 S3        30.07R

$$
MOZ072>076-082>087-097>100-106>115-310600-
...SOUTH CENTRAL AND SOUTHEAST MISSOURI...

CITY           SKY/WX    TMP DP  RH WIND       PRES   REMARKS
CAPE GIRARDEAU MOCLDY    64  62  93 CALM      30.07S
FARMINGTON     MOCLDY    64  61  88 CALM      30.11S
POPLAR BLUFF   MOCLDY    67  63  87 CALM      30.07R
WEST PLAINS    CLOUDY    66  64  93 NE3       30.11R FOG

$$


USA.gov is the U.S. government's official web portal to all federal, state and local government web resources and services.